Find Starlink 31529

NORAD ID: 59000 Int'l Des: 2024-036 Owner: SPXS Country: US Constellation: starlink operational
LEOCIRCULAR

Live-Position

3D-Globus wird geladen...

Über Starlink 31529

Beschreibung wird geladen...

Nächste Überflüge

Passes for default location (London). Set your location on the main map for personalized predictions.

Höhenverlauf

Loading altitude history...

Zweizeiliger Elementsatz

1 59000U 24036C 26126.48907988 .00009889 00000-0 34624-3 0 9995
2 59000 53.1594 167.4596 0001141 111.0199 249.0923 15.30134733124129
Epoch: 6. Mai 2026 • Age: 10 hours

Aktueller Status

Höhe 485.3 km
Geschwindigkeit 7.62 km/s
Subsatellitenpunkt -31.32°S, 176.11°E
Startdatum 23. Feb. 2024
Alter 2.1 years
Typ internet

Technische Details

Klassifizierung Payload
Masse 730.00 kg
Trockenmasse 700.00 kg
Gesamtmasse 730.00 kg
Länge 0.30 m
Durchmesser 4.10 m
Spannweite 29.00 m
Form Box + pan
Hersteller SPXS
Bus-Typ Starlink V2M
Phasenstatus In Orbit
Besitzer/Staat SPXS/US

Most Searched